Tracking 18630 objects as of 22-May-2017
HD Live streaming from Space Station
objects crossing your sky now

SL-8 R/B

Track SL-8 R/B now!
10-day predictions


NORAD ID: 13917
Int'l Code: 1983-021B
Perigee: 962.1 km
Apogee: 1,002.6 km
Inclination: 82.9 °
Period: 104.6 minutes
Semi major axis: 7353 km
RCS: 4.8067 m2 (large)
Launch date: March 24, 1983
Source: Commonwealth of Independent States (former USSR) (CIS)
Launch site: PLESETSK MISSILE AND SPACE COMPLEX (PKMTR)

Note: This is a ROCKET BODY
Your satellite tracking list
Your tracking list is empty





NASA's NSSDC Master Catalog

Two Line Element Set (TLE):
1 13917U 83021B   17141.85715831 +.00000040 +00000-0 +24990-4 0  9999
2 13917 082.9437 266.3584 0027567 326.2963 144.5608 13.76818936715966
Source of the keplerian elements: AFSPC